�������l�o���
Date,Time,MP-1(��Sv/h),MP-2(��Sv/h),MP-3(��Sv/h),MP-4(��Sv/h),MP-5(��Sv/h),MP-6(��Sv/h),MP-7(��Sv/h),����,����(m/s),���J
2017/10/08,00:00,0.334,0.208,0.340,0.322,0.308,0.169,0.100,�k,4.5,��
2017/10/08,00:10,0.332,0.208,0.339,0.319,0.311,0.169,0.099,�k,4.9,��
2017/10/08,00:20,0.333,0.207,0.338,0.323,0.307,0.167,0.100,�k,3.9,��
2017/10/08,00:30,0.333,0.209,0.339,0.318,0.311,0.169,0.100,�k,3.1,��
2017/10/08,00:40,0.333,0.208,0.338,0.320,0.309,0.168,0.100,�k�k��,3.2,��
2017/10/08,00:50,0.335,0.208,0.340,0.320,0.312,0.168,0.100,�k�k��,3.1,��
2017/10/08,01:00,0.333,0.206,0.340,0.320,0.308,0.167,0.100,�k,5.0,��
2017/10/08,01:10,0.334,0.209,0.340,0.320,0.310,0.170,0.098,�k,4.6,��
2017/10/08,01:20,0.331,0.207,0.339,0.319,0.309,0.167,0.100,�k,5.1,��
2017/10/08,01:30,0.335,0.209,0.339,0.320,0.311,0.169,0.100,�k,4.5,��
2017/10/08,01:40,0.333,0.208,0.339,0.321,0.311,0.167,0.100,�k,4.2,��
2017/10/08,01:50,0.334,0.209,0.341,0.321,0.309,0.168,0.100,�k,4.7,��
2017/10/08,02:00,0.333,0.209,0.340,0.320,0.312,0.169,0.100,�k,4.5,��
2017/10/08,02:10,0.335,0.209,0.341,0.323,0.309,0.168,0.101,�k,3.9,��
2017/10/08,02:20,0.334,0.208,0.340,0.320,0.312,0.170,0.100,�k,4.8,��
2017/10/08,02:30,0.335,0.209,0.340,0.323,0.310,0.169,0.101,�k�k��,3.9,��
2017/10/08,02:40,0.333,0.209,0.338,0.320,0.313,0.169,0.100,�k,3.9,��
2017/10/08,02:50,0.333,0.210,0.341,0.322,0.309,0.168,0.100,�k,3.6,��
2017/10/08,03:00,0.333,0.208,0.338,0.319,0.313,0.168,0.099,�k,3.3,��
2017/10/08,03:10,0.333,0.209,0.341,0.322,0.309,0.168,0.100,�k�k��,2.6,��
2017/10/08,03:20,0.335,0.208,0.339,0.321,0.312,0.169,0.100,�k�k��,2.8,��
2017/10/08,03:30,0.334,0.209,0.341,0.322,0.312,0.168,0.101,�k�k��,2.3,��
2017/10/08,03:40,0.333,0.208,0.339,0.320,0.313,0.169,0.100,�k��,1.7,��
2017/10/08,03:50,0.335,0.209,0.341,0.322,0.311,0.169,0.100,�k��,1.4,��
2017/10/08,04:00,0.334,0.208,0.340,0.320,0.311,0.169,0.100,�k,1.6,��
2017/10/08,04:10,0.333,0.208,0.340,0.322,0.308,0.169,0.100,�k�k��,1.2,��
2017/10/08,04:20,0.334,0.208,0.340,0.320,0.311,0.168,0.100,�k�k��,0.6,��
2017/10/08,04:30,0.335,0.208,0.341,0.321,0.310,0.169,0.100,�k��,1.6,��
2017/10/08,04:40,0.335,0.210,0.340,0.320,0.312,0.168,0.100,�k�k��,2.2,��
2017/10/08,04:50,0.334,0.208,0.340,0.323,0.310,0.169,0.101,�k�k��,3.0,��
2017/10/08,05:00,0.334,0.208,0.340,0.320,0.312,0.168,0.101,�k,3.3,��
2017/10/08,05:10,0.334,0.208,0.339,0.322,0.311,0.168,0.100,�k,4.9,��
2017/10/08,05:20,0.335,0.209,0.341,0.320,0.311,0.169,0.100,�k,4.6,��
2017/10/08,05:30,0.334,0.210,0.339,0.322,0.310,0.168,0.100,�k�k��,3.6,��
2017/10/08,05:40,0.334,0.208,0.343,0.321,0.313,0.168,0.100,�k�k��,3.3,��
2017/10/08,05:50,0.336,0.210,0.339,0.321,0.309,0.170,0.101,�k�k��,3.4,��
2017/10/08,06:00,0.335,0.209,0.342,0.321,0.313,0.169,0.100,�k,4.0,��
2017/10/08,06:10,0.337,0.209,0.339,0.322,0.311,0.169,0.101,�k,5.0,��
2017/10/08,06:20,0.333,0.209,0.342,0.323,0.312,0.169,0.101,�k,5.0,��
2017/10/08,06:30,0.336,0.209,0.340,0.321,0.309,0.168,0.101,�k,5.2,��
2017/10/08,06:40,0.334,0.210,0.343,0.322,0.313,0.170,0.101,�k,5.0,��
2017/10/08,06:50,0.336,0.209,0.339,0.320,0.310,0.169,0.101,�k,4.7,��
2017/10/08,07:00,0.332,0.209,0.342,0.322,0.312,0.169,0.100,�k,5.0,��
2017/10/08,07:10,0.334,0.207,0.339,0.321,0.308,0.169,0.100,�k,5.6,��
2017/10/08,07:20,0.333,0.209,0.341,0.321,0.312,0.169,0.101,�k,6.4,��
2017/10/08,07:30,0.335,0.209,0.337,0.322,0.310,0.169,0.100,�k�k��,5.7,��
2017/10/08,07:40,0.334,0.209,0.341,0.318,0.311,0.169,0.100,�k,4.8,��
2017/10/08,07:50,0.334,0.209,0.339,0.321,0.311,0.170,0.100,�k�k��,2.2,��
2017/10/08,08:00,0.333,0.209,0.342,0.322,0.311,0.168,0.099,�k�k��,2.8,��
2017/10/08,08:10,0.333,0.207,0.338,0.319,0.313,0.170,0.100,�k�k��,4.5,��
2017/10/08,08:20,0.334,0.210,0.341,0.320,0.308,0.168,0.099,�k�k��,4.8,��
2017/10/08,08:30,0.331,0.208,0.338,0.320,0.312,0.169,0.098,�k��,4.7,��
2017/10/08,08:40,0.334,0.209,0.340,0.320,0.310,0.169,0.099,�k�k��,4.2,��
2017/10/08,08:50,0.333,0.207,0.338,0.323,0.310,0.167,0.100,�k�k��,4.2,��
2017/10/08,09:00,0.335,0.208,0.338,0.318,0.312,0.169,0.099,�k,4.5,��
2017/10/08,09:10,0.332,0.209,0.340,0.322,0.306,0.168,0.101,�k,3.5,��
2017/10/08,09:20,0.331,0.207,0.337,0.323,0.311,0.167,0.099,�k�k��,3.7,��
2017/10/08,09:30,0.335,0.208,0.342,0.319,0.311,0.167,0.099,�k,3.4,��
2017/10/08,09:40,0.332,0.208,0.339,0.318,0.308,0.169,0.099,�k,3.6,��
2017/10/08,09:50,0.329,0.207,0.338,0.317,0.308,0.169,0.098,�k�k��,4.3,��
2017/10/08,10:00,0.330,0.207,0.340,0.319,0.311,0.167,0.098,�k�k��,5.8,��
2017/10/08,10:10,0.334,0.208,0.338,0.322,0.313,0.167,0.099,�k�k��,6.7,��
2017/10/08,10:20,0.334,0.209,0.341,0.320,0.308,0.169,0.100,�k�k��,6.9,��
2017/10/08,10:30,0.331,0.207,0.338,0.319,0.310,0.169,0.100,�k�k��,5.8,��
2017/10/08,10:40,0.331,0.208,0.338,0.322,0.313,0.169,0.099,�k�k��,7.3,��
2017/10/08,10:50,0.336,0.209,0.341,0.323,0.310,0.167,0.099,�k�k��,5.7,��
2017/10/08,11:00,0.335,0.208,0.339,0.319,0.308,0.169,0.098,�k�k��,3.9,��
2017/10/08,11:10,0.331,0.207,0.335,0.320,0.307,0.169,0.099,�k�k��,4.6,��
2017/10/08,11:20,0.332,0.206,0.339,0.319,0.307,0.169,0.100,�k�k��,4.8,��
2017/10/08,11:30,0.336,0.210,0.342,0.319,0.310,0.168,0.099,�k��,5.1,��
2017/10/08,11:40,0.336,0.208,0.339,0.320,0.314,0.168,0.099,�k��,4.3,��
2017/10/08,11:50,0.333,0.208,0.336,0.324,0.311,0.168,0.099,�k��,4.5,��
2017/10/08,12:00,0.332,0.206,0.339,0.322,0.309,0.169,0.099,�k��,3.9,��
2017/10/08,12:10,0.335,0.207,0.341,0.321,0.308,0.168,0.099,�k�k��,4.7,��
2017/10/08,12:20,0.337,0.209,0.339,0.319,0.308,0.168,0.100,�k��,4.2,��
2017/10/08,12:30,0.333,0.209,0.338,0.319,0.312,0.169,0.100,�k�k��,4.6,��
2017/10/08,12:40,0.331,0.208,0.337,0.320,0.314,0.170,0.099,�k�k��,3.7,��
2017/10/08,12:50,0.337,0.206,0.336,0.319,0.312,0.170,0.100,�k��,2.8,��
2017/10/08,13:00,0.335,0.210,0.340,0.323,0.310,0.169,0.099,�k�k��,3.6,��
2017/10/08,13:10,0.332,0.211,0.342,0.323,0.309,0.170,0.101,�k��,3.1,��
2017/10/08,13:20,0.336,0.208,0.339,0.322,0.311,0.170,0.100,���k��,2.8,��
2017/10/08,13:30,0.336,0.209,0.338,0.321,0.313,0.169,0.099,�k��,2.4,��
2017/10/08,13:40,0.332,0.210,0.343,0.325,0.311,0.169,0.101,���k��,2.5,��
2017/10/08,13:50,0.337,0.209,0.341,0.322,0.310,0.168,0.100,�k��,2.8,��
2017/10/08,14:00,0.335,0.208,0.338,0.321,0.314,0.170,0.099,�k��,2.4,��
2017/10/08,14:10,0.334,0.210,0.342,0.325,0.311,0.168,0.101,�k�k��,1.3,��
2017/10/08,14:20,0.337,0.207,0.339,0.323,0.309,0.168,0.099,�k�k��,1.6,��
2017/10/08,14:30,0.336,0.210,0.340,0.321,0.313,0.169,0.099,�k��,2.5,��
2017/10/08,14:40,0.332,0.210,0.343,0.323,0.312,0.170,0.100,���k��,1.3,��
2017/10/08,14:50,0.337,0.208,0.339,0.323,0.310,0.169,0.100,�쓌,1.1,��
2017/10/08,15:00,0.336,0.210,0.343,0.321,0.313,0.169,0.099,�쓌,0.7,��
2017/10/08,15:10,0.333,0.210,0.342,0.324,0.311,0.169,0.101,��,1.3,��
2017/10/08,15:20,0.337,0.207,0.339,0.322,0.310,0.169,0.100,�쓌,1.0,��
2017/10/08,15:30,0.336,0.209,0.343,0.323,0.312,0.170,0.099,�쓌,1.2,��
2017/10/08,15:40,0.334,0.209,0.341,0.325,0.313,0.169,0.101,��,1.3,��
2017/10/08,15:50,0.336,0.210,0.340,0.322,0.310,0.169,0.100,��,1.1,��
2017/10/08,16:00,0.333,0.211,0.341,0.323,0.315,0.170,0.101,��쓌,0.8,��
2017/10/08,16:10,0.337,0.209,0.339,0.323,0.313,0.169,0.100,��쐼,0.5,��
2017/10/08,16:20,0.335,0.210,0.343,0.322,0.311,0.170,0.100,��,0.7,��
2017/10/08,16:30,0.335,0.209,0.342,0.325,0.315,0.170,0.100,-,CALM,��
2017/10/08,16:40,0.336,0.212,0.341,0.322,0.311,0.170,0.100,��쓌,1.4,��
2017/10/08,16:50,0.333,0.209,0.341,0.325,0.314,0.169,0.100,��쓌,1.6,��
2017/10/08,17:00,0.337,0.210,0.342,0.324,0.312,0.169,0.100,��,1.7,��
2017/10/08,17:10,0.332,0.209,0.342,0.324,0.312,0.169,0.100,��,1.4,��
2017/10/08,17:20,0.337,0.210,0.340,0.324,0.313,0.169,0.100,��쓌,1.2,��
2017/10/08,17:30,0.334,0.209,0.342,0.323,0.311,0.169,0.100,��,0.9,��
2017/10/08,17:40,0.338,0.210,0.340,0.323,0.313,0.169,0.100,�쐼,0.8,��
2017/10/08,17:50,0.333,0.209,0.343,0.322,0.310,0.169,0.100,��,1.0,��
2017/10/08,18:00,0.336,0.209,0.341,0.326,0.315,0.170,0.100,���쐼,0.8,��
2017/10/08,18:10,0.335,0.210,0.343,0.323,0.309,0.169,0.100,���쐼,0.9,��
2017/10/08,18:20,0.337,0.210,0.341,0.323,0.314,0.170,0.100,-,CALM,��
2017/10/08,18:30,0.335,0.210,0.342,0.321,0.312,0.169,0.100,-,CALM,��
2017/10/08,18:40,0.338,0.209,0.340,0.325,0.312,0.170,0.099,-,CALM,��
2017/10/08,18:50,0.334,0.211,0.342,0.322,0.312,0.168,0.100,��쓌,0.5,��
2017/10/08,19:00,0.337,0.209,0.339,0.326,0.313,0.170,0.101,�쐼,2.8,��
2017/10/08,19:10,0.334,0.209,0.343,0.322,0.312,0.170,0.101,��쐼,1.1,�L
2017/10/08,19:20,0.337,0.210,0.341,0.325,0.313,0.170,0.100,-,CALM,��
2017/10/08,19:30,0.334,0.210,0.343,0.323,0.310,0.170,0.099,��,1.9,��
2017/10/08,19:40,0.338,0.211,0.340,0.325,0.313,0.169,0.100,��,1.9,��
2017/10/08,19:50,0.335,0.210,0.343,0.323,0.310,0.170,0.100,��,1.4,��
2017/10/08,20:00,0.337,0.210,0.340,0.324,0.315,0.170,0.100,�쐼,0.8,��
2017/10/08,20:10,0.334,0.209,0.342,0.323,0.310,0.170,0.100,��,1.6,��
2017/10/08,20:20,0.337,0.210,0.339,0.326,0.312,0.170,0.102,��쐼,1.1,��
2017/10/08,20:30,0.336,0.210,0.343,0.323,0.310,0.169,0.100,�쐼,1.5,��
2017/10/08,20:40,0.335,0.209,0.342,0.324,0.312,0.170,0.102,�쐼,1.7,��
2017/10/08,20:50,0.336,0.211,0.342,0.324,0.312,0.171,0.101,�쐼,1.5,��
2017/10/08,21:00,0.335,0.210,0.341,0.325,0.314,0.170,0.101,��쐼,1.0,��
2017/10/08,21:10,0.336,0.210,0.343,0.323,0.310,0.171,0.101,��,0.8,��
2017/10/08,21:20,0.335,0.209,0.343,0.324,0.313,0.170,0.102,��,1.1,��
2017/10/08,21:30,0.337,0.209,0.342,0.323,0.311,0.170,0.101,��쐼,1.2,��
2017/10/08,21:40,0.334,0.211,0.342,0.324,0.313,0.170,0.100,��,0.8,��
2017/10/08,21:50,0.336,0.209,0.342,0.324,0.313,0.170,0.101,��,0.9,��
2017/10/08,22:00,0.334,0.210,0.343,0.323,0.314,0.170,0.101,-,CALM,��
2017/10/08,22:10,0.337,0.209,0.340,0.325,0.312,0.170,0.101,��,1.4,��
2017/10/08,22:20,0.334,0.209,0.343,0.323,0.313,0.169,0.101,��쐼,0.7,��
2017/10/08,22:30,0.336,0.211,0.340,0.324,0.312,0.170,0.101,��쐼,1.2,��
2017/10/08,22:40,0.335,0.210,0.344,0.323,0.312,0.169,0.102,��쐼,1.1,��
2017/10/08,22:50,0.336,0.210,0.343,0.325,0.313,0.170,0.100,��쐼,0.8,��
2017/10/08,23:00,0.335,0.210,0.344,0.323,0.310,0.170,0.101,��쐼,0.9,��
2017/10/08,23:10,0.334,0.209,0.343,0.324,0.314,0.171,0.101,��,0.8,��
2017/10/08,23:20,0.338,0.210,0.342,0.324,0.313,0.170,0.102,��,0.9,��
2017/10/08,23:30,0.335,0.210,0.343,0.324,0.314,0.169,0.103,��,1.0,��
2017/10/08,23:40,0.337,0.210,0.341,0.325,0.311,0.170,0.101,��쐼,1.1,��
2017/10/08,23:50,0.334,0.211,0.343,0.324,0.314,0.170,0.102,�쐼,0.9,��
